sat.trackr.live / text

‹ back to catalog

STARLINK-36953

NORAD 68010 · 2026-039AA

PAYLOAD ACTIVE UNKNOWN

§ Identity

Operator
Country
US
Launch date
2026-02-27
Launch site
AFETR
Launch vehicle
Mass (kg)
RCS (m²)

Purposes: comms

External: N2YO · Heavens-Above · Gunter

§ Orbital elements

Epoch: 2026-05-24T17:20:03.473088Z

Period
94.27 min
Inclination
43.0020°
Eccentricity
0.0001088
Mean motion
15.27592047 rev/d
Perigee alt
482.3 km
Apogee alt
483.8 km
Semi-major
6,861.2 km
B*
4.6973e-4
RAAN
339.3459°
Arg perigee
271.6903°
Mean anomaly
88.3824°
Rev number
1,333

§ Raw data

STARLINK-369531 68010U 26039AA  26144.72226242  .00012691  00000+0  46973-3 0  99992 68010  43.0020 339.3459 0001088 271.6903  88.3824 15.27592047 13332

JSON: /api/v1/satellites/68010 · /tle

For live sub-satellite position, see the globe view (requires WebGL).

§ Visibility from observer

Set your observer location to see the next 7 days of passes ≥ 10°. The values pass through the URL so the page stays shareable.

No JS? Fill the form by hand. The geolocation button needs JavaScript.